Regional Weather Roundup
Issued by NWS Goodland, KS

Home | Current Version | Previous Version | Text Only | Print | Product List | Glossary Off
Versions: 1 2 3 4 5 6 7 8 9 10 11 12 13 14 15 16 17 18 19 20 21 22 23 24 25 26 27 28 29 30 31 32 33 34 35 36 37 38 39 40 41 42 43 44 45 46 47 48 49 50

000
ASUS43 KGLD 161308
RWRGLD

GOODLAND FORECAST AREA HOURLY WEATHER ROUNDUP
NATIONAL WEATHER SERVICE GOODLAND KS
700 AM MDT WED AUG 16 2017

...OFFICIAL OBSERVATIONS...

CITY           SKY/WX    TMP DP  RH WIND       PRES   REMARKS
GOODLAND KS    CLOUDY    60  59  96 NW12      29.97R
HILL CITY KS   CLOUDY    63  62  97 W9        29.89R
IMPERIAL NEB   CLOUDY    62  58  86 W5        29.94R
MCCOOK NEB     CLOUDY    62  61  96 W12       29.92R
AKRON CO       PTCLDY    56  53  90 W5        30.03R
BURLINGTON CO  CLOUDY    59  58  96 NW6       30.01R
LIMON CO       PTCLDY    53  51  93 NW10      30.09R
$$

...UNOFFICIAL OBSERVATIONS...

CITY           SKY/WX    TMP DP  RH WIND       PRES   REMARKS
LENORA KS        N/A     61  32  33 W7          N/A
NORTON KS      PTSUNNY   61  55  82 W12       29.89
SHARON SPRINGS   N/A     61  59  92 NW8         N/A
TRENTON NEB      N/A     61  32  33 CALM        N/A
KIT CARSON CO    N/A     60  56  87 MISG        N/A
YUMA CO        FAIR      57  55  94 W7        29.99R
$$




USA.gov is the U.S. government's official web portal to all federal, state and local government web resources and services.